星链-3905 (STARLINK-3905 )

导读 | 星芒AI

STARLINK-3905 是 SpaceX Starlink 卫星互联网项目中的一颗低轨卫星,属于第十五批发射的组网卫星之一。该卫星于2021年10月31日通过猎鹰9号火箭成功送入近地轨道,旨在为全球用户提供高速、低延迟的宽带互联网服务。STARLINK-3905 采用先进的推进和通信技术,支持Ka和Ku频段通信,并具备自主变轨和避障能力,有助于提升 Starlink 网络的覆盖范围与稳定性。

基本信息
目录编号:
52495
目录名称:
STARLINK-3905
国际标识:
2022-049AW
轨道中心:
EARTH
卫星名称:
星链-3905
卫星全名:
星链-3905 (STARLINK-3905 )
卫星状态:
已陨落 最后检测时间 2025-03-28
发射日期:
2022-05-06 UTC
国别 :
美国 (US)
星等 :
--
轨道信息
数据来源 国际轨道数据
星历时间: 2025-03-27T21:42:26+0800
轨道信息已过期268天
半长轴: 6585.72km
偏心率: 0.0005617
轨道倾角: 53.206°
近地点辐角 350.303°
升交点赤经 148.303°
平近点角 119.986°
近地点: 203.885km
远地点: 211.285km
周期: 88.647分钟
每日圈数: 16.244184
详细信息
固有亮度:
5
最大亮度:
2.5
卫星平台:
Starlink v1.5
覆盖范围:
全球
运营商:
太空探索技术公司
运营商所在国:
美国
制造商(研发单位):
太空探索技术公司
制造商所在国:
美国
使用方式:
暂无
卫星简介
星链(Starlink)计划是由太空探索技术公司(SpaceX)提出的一个巨型低轨卫星互联网星座项目,计划在2019年至2024年间在太空搭建由约1.2万颗卫星组成的“星链”网络,其中1584颗将部署在地球上空550千米处的近地轨道,并从2020年开始工作。该卫星仍在工作。